[Iaude] MPEC M96: 2024 MT [a=1.10,e=0.29,i=6.3,H=24.7]

mpec at cfa.harvard.edu mpec at cfa.harvard.edu
Thu Jun 27 16:37:59 EDT 2024


M.P.E.C. 2024-M96                                 Issued 2024 June 27, 20:36 UT

     The Minor Planet Electronic Circulars contain information on unusual
         minor planets, routine data on comets and natural satellites,
         and occasional editorial announcements.  They are published
    on behalf of Division F of the International Astronomical Union by the
          Minor Planet Center, Smithsonian Astrophysical Observatory,
                          Cambridge, MA 02138, U.S.A.
			  
             Prepared using the Tamkin Foundation Computer Network

                              MPC at CFA.HARVARD.EDU
            URL https://www.minorplanetcenter.net/    ISSN 1523-6714

                                    2024 MT                                     


Observations:
     K24M00T* C2024 06 26.47677815 22 58.621+22 37 47.86         19.00iXEM096F51
     K24M00T  C2024 06 26.48712715 23 14.601+22 35 40.53         19.37iXEM096F51
     K24M00T  C2024 06 26.50782115 23 46.680+22 31 25.14         18.81iXEM096F51
     K24M00T KB2024 06 26.82167415 32 02.585+21 30 53.35         19.8 GXEM096L34
     K24M00T KB2024 06 26.83713315 32 23.652+21 28 00.95               XEM096L34
     K24M00T KC2024 06 26.86475015 33 01.51 +21 22 17.9          19.8 GXEM096595
     K24M00T KC2024 06 26.86863015 33 06.78 +21 21 33.7          19.6 GXEM096595
     K24M00T KC2024 06 26.87250215 33 12.05 +21 20 50.5          20.0 GXEM096595
     K24M00T 1C2024 06 26.88272315 33 29.541+21 19 33.56         19.1 GVEM096Z84
     K24M00T 1C2024 06 26.88472915 33 32.222+21 19 10.90         19.9 GVEM096Z84
     K24M00T 1C2024 06 26.88968115 33 38.873+21 18 16.15         20.0 GVEM096Z84
     K24M00T 1C2024 06 26.89173315 33 41.607+21 17 53.23         19.7 GVEM096Z84
     K24M00T KC2024 06 26.89795115 33 46.99 +21 16 13.4          19.7 GVEM096104
     K24M00T KC2024 06 26.90761115 33 59.99 +21 14 24.8                VEM096104
     K24M00T KC2024 06 26.91341315 34 07.82 +21 13 19.5          19.4 GVEM096104
     K24M00T KB2024 06 26.92796215 34 27.97 +21 10 29.8                VEM096204
     K24M00T KB2024 06 26.93909915 34 42.94 +21 08 24.9                VEM096204
     K24M00T KC2024 06 26.93940115 34 45.816+21 08 04.45         19.1 GVEM096J95
     K24M00T KC2024 06 26.94173515 34 48.982+21 07 38.42         18.9 GVEM096J95
     K24M00T KC2024 06 26.94407315 34 52.128+21 07 12.36         19.3 GVEM096J95
     K24M00T KC2024 06 26.94645215 34 55.289+21 06 45.83         19.2 GVEM096J95
     K24M00T KB2024 06 26.95033915 34 58.04 +21 06 18.8          19.3 GVEM096204
     K24M00T KC2024 06 27.10431715 38 39.41 +20 38 55.9          19.2 GVEM096H21
     K24M00T KC2024 06 27.10624615 38 41.86 +20 38 35.2          19.4 GVEM096H21
     K24M00T KC2024 06 27.10817415 38 44.28 +20 38 14.7          19.4 GVEM096H21
     K24M00T KC2024 06 27.11055415 38 47.30 +20 37 49.2          19.4 GVEM096H21
     K24M00T KC2024 06 27.81616 15 53 18.12 +18 38 25.5          19.1 GVEM096C82
     K24M00T KC2024 06 27.82753 15 53 30.00 +18 36 37.3          19.3 GVEM096C82

Observer details:
104 San Marcello Pistoiese.  Observers P. Bacci, M. Maestripieri.  Measurers
    P. Bacci, L. Tesi, G. Fagioli.  0.60-m F4 Reflector + CCD.
204 Schiaparelli Observatory.  Observer L. Buzzi.  0.84-m f/3.5 reflector +
    CMO.
595 Farra d'Isonzo.  Observer E. Pettarin.  0.61-m f/4.5 reflector + CCD.
C82 Osservatorio Astronomico Nastro Verde, Sorrento.  Observer N. Ruocco.
    0.35-m f/6.3  Schmidt-Cassegrain + CCD.
F51 Pan-STARRS 1, Haleakala.  Observers J. Herman, T. Lowe, P. Minguez, A.
    Schultz, I. Smith.  Measurers K. Chambers, T. de Boer, J. Fairlamb, H.
    Gao, M. Huber, C.-C. Lin, E. Magnier, Y. Ramanjooloo, R. Wainscoat, R.
    Weryk.  1.8-m Ritchey-Chretien + CCD.
H21 Astronomical Research Observatory, Westfield.  Observer R. Holmes.
    Measurers T. Linder, R. Holmes, L. Horn.  0.76-m f/3.0 astrograph + CCD.
J95 Great Shefford.  Observer P. Birtwhistle.  0.41-m f/6.3 Schmidt-Cassegrain
    + CCD.
L34 Galhassin Robotic Telescope, Isnello.  Observer A. Nastasi.  0.40-m f/3.8
    400mm Reflector + CMO.
Z84 Calar Alto-Schmidt.  Observers M. Micheli, F. Ocana, R. Kresken, L.
    Conversi.  Measurer M. Micheli.  0.8-m f/3 Schmidt + CCD.

Orbital elements:
2024 MT                                                  Earth MOID = 0.0140 AU
Epoch 2024 Mar. 31.0 TT = JDT 2460400.5                 MPC                     
M 346.73379              (2000.0)            P               Q                  
n   0.85439898     Peri.  276.57227     -0.99406275     -0.00534189             
a   1.0999229      Node   263.16079     +0.04687546     -0.92238029             
e   0.2857863      Incl.    6.28396     -0.09819342     -0.38624611             
P   1.15           H   24.73          G   0.15           U   7                  
Residuals in seconds of arc
240626 F51  0.1-  0.2-    240626 Z84  0.1+  0.1+    240626 J95  0.3-  0.1+
240626 F51  0.2-  0.1+    240626 Z84  0.1-  0.0     240626 204  0.0   0.1+
240626 F51  0.3+  0.0     240626 104  0.1+  0.3+    240627 H21  0.1+  0.1-
240626 L34  0.5-  0.1-    240626 104  0.2-  0.1+    240627 H21  0.2+  0.1-
240626 L34  0.8-  0.5+    240626 104  0.0   0.0     240627 H21  0.1-  0.0
240626 595  0.6+  0.3+    240626 204  0.1-  0.1-    240627 H21  0.0   0.1-
240626 595  0.5+  0.4-    240626 204  0.1-  0.0     240627 C82  0.2+  0.2+
240626 595  0.6+  0.1-    240626 J95  0.2-  0.1+    240627 C82  0.4-  0.4-
240626 Z84  0.1+  0.1+    240626 J95  0.2+  0.1+
240626 Z84  0.0   0.3-    240626 J95  0.2+  0.1+

Ephemeris:
2024 MT                  a,e,i = 1.10, 0.29, 6                   q = 0.7856
Date    TT    R. A. (2000) Decl.     Delta      r    Elong.  Phase     V
2024 05 28    06 26 07.4 +09 35 11   0.1483  0.8919    32.5   142.3    27.5
...
2024 06 12    07 17 59.3 +15 51 57   0.06220 0.9612    28.3   149.9    27.0
...
2024 06 20    09 55 49.9 +32 15 12   0.02730 1.0001    53.3   125.4    22.2
...
2024 06 26    15 09 38.3 +24 15 34   0.03125 1.0294   113.7    64.7    19.6
2024 06 27    15 36 13.1 +20 59 17   0.03500 1.0343   119.7    58.6    19.6
2024 06 28    15 56 36.4 +18 11 12   0.03915 1.0392   124.4    53.8    19.7
...
2024 07 04    16 57 13.8 +08 27 53   0.06833 1.0683   137.8    39.8    20.6
...
2024 07 12    17 26 07.6 +03 07 56   0.1118  1.1063   141.5    34.9    21.6
...
2024 07 27    17 51 19.2 -01 39 48   0.2014  1.1736   138.3    35.1    23.0

A. U. Tomatic                (C) Copyright 2024 MPC           M.P.E.C. 2024-M96





More information about the Iaude mailing list